QPF
0.00 0.00 0.00 0.00 0.00 0.00 0.00 0.00 0.00 0.00 0.00 0.00 0.00 0.00 0.00 0.00 0.00 0.00 0.00 0.00 0.00 0.00
0.00 0.00 0.00 0.00 0.00 0.00 0.00 0.00 0.00 0.00 0.00 0.00 0.00 0.00 0.00 0.00 0.00 0.00 0.00 0.00 0.00 0.00
0.00 0.00 0.00 0.00 0.00 0.00 0.00 0.00 0.00 0.00 0.00 0.00 0.00 0.00 0.00 0.00 0.00 0.00 0.00 0.00 0.00 0.00
0.00 0.00 0.00 0.00 0.00 0.00 0.00 0.00 0.00 0.00 0.00 0.00 0.00 0.00 0.00 0.00 0.00 0.00 0.00 0.00 0.00 0.00
0.00 0.00 0.00 0.00 0.00 0.00 0.00 0.00 0.00 0.00 0.00 0.00 0.00 0.00 0.00 0.00 0.00 0.00 0.00 0.00 0.00 0.00
0.00 0.00 0.00 0.00 0.00 0.00 0.00 0.00 0.00 0.00 0.00 0.00 0.00 0.00 0.00 0.00 0.00 0.00 0.00 0.00 0.00 0.00
0.00 0.00 0.00 0.00 0.00 0.00 0.00 0.00 0.00 0.00 0.00 0.00 0.00 0.00 0.00 0.00 0.00 0.00 0.00 0.00 0.00 0.00
0.00 0.00 0.00 0.00 0.00 0.00 0.00 0.00 0.00 0.00 0.00 0.00 0.00 0.00 0.00 0.01 0.01 0.01 0.00 0.00 0.00 0.00
0.00 0.00 0.00 0.00 0.00 0.00 0.00 0.00 0.00 0.00 0.00 0.00 0.00 0.00 0.01 0.02 0.02 0.03 0.05 0.03 0.01 0.00
0.00 0.00 0.00 0.00 0.00 0.00 0.00 0.00 0.01 0.01 0.01 0.00 0.01 0.01 0.03 0.04 0.05 0.03 0.04 0.08 0.08 0.00
0.00 0.00 0.00 0.00 0.00 0.01 0.01 0.04 0.05 0.03 0.01 0.01 0.01 0.03 0.04 0.05 0.07 0.06 0.04 0.02 0.01 0.00
0.00 0.00 0.00 0.00 0.01 0.02 0.04 0.04 0.02 0.01 0.01 0.02 0.01 0.02 0.04 0.05 0.07 0.07 0.05 0.03 0.01 0.00
0.00 0.00 0.00 0.00 0.01 0.02 0.02 0.01 0.02 0.01 0.01 0.02 0.02 0.02 0.03 0.04 0.05 0.05 0.04 0.03 0.01 0.00
0.00 0.00 0.00 0.01 0.02 0.02 0.02 0.02 0.02 0.01 0.01 0.01 0.01 0.01 0.02 0.03 0.04 0.03 0.02 0.01 0.00 0.00
MSLP
1015.68 1015.28 1014.89 1014.49 1014.13 1013.59 1013.17 1012.69 1012.57 1012.32 1011.99 1011.74 1011.52 1011.30 1011.18 1010.95 1010.71 1010.52 1010.38 1010.07 1009.92 1009.73
1015.42 1015.13 1014.74 1014.37 1013.84 1013.25 1012.80 1012.35 1012.00 1011.68 1011.28 1011.09 1010.93 1010.85 1010.69 1010.12 1009.73 1009.67 1009.42 1009.09 1008.93 1009.00
1015.34 1015.00 1014.50 1013.95 1013.37 1012.88 1012.29 1011.89 1011.43 1010.94 1010.75 1010.56 1010.26 1010.20 1009.95 1009.30 1008.85 1008.86 1008.64 1008.35 1007.90 1007.90
1015.03 1014.63 1014.19 1013.72 1013.23 1012.68 1012.02 1011.47 1010.88 1010.37 1010.05 1009.67 1009.29 1009.13 1008.87 1008.11 1007.78 1007.67 1007.62 1007.49 1007.27 1007.19
1014.81 1014.40 1013.95 1013.47 1013.02 1012.56 1011.88 1011.23 1010.56 1009.92 1009.28 1008.74 1008.30 1008.10 1007.82 1007.18 1006.82 1006.66 1006.59 1006.61 1006.60 1006.42
1014.35 1013.99 1013.44 1012.89 1012.40 1011.99 1011.55 1010.99 1010.37 1009.76 1008.97 1008.26 1007.78 1007.35 1006.97 1006.60 1006.30 1006.01 1005.89 1005.73 1005.71 1005.67
1013.92 1013.34 1012.87 1012.50 1012.13 1011.66 1011.18 1010.68 1010.02 1009.27 1008.51 1007.82 1007.15 1006.78 1006.44 1006.15 1006.30 1005.73 1005.29 1005.41 1005.08 1005.14
1013.63 1013.32 1012.77 1012.54 1011.90 1011.07 1010.53 1009.98 1009.40 1008.60 1007.81 1007.17 1006.59 1005.98 1005.72 1005.40 1005.45 1005.75 1005.41 1004.74 1004.39 1004.34
1013.39 1013.00 1012.40 1011.62 1010.89 1010.26 1009.64 1009.11 1008.40 1007.65 1006.80 1006.28 1005.82 1005.33 1005.08 1004.93 1004.78 1004.88 1004.64 1004.69 1004.81 1003.75
1013.03 1012.22 1011.47 1010.85 1010.03 1009.45 1008.73 1008.11 1007.18 1006.61 1006.15 1005.38 1004.80 1004.40 1004.05 1004.03 1004.12 1004.09 1004.00 1004.27 1004.62 1003.59
1012.36 1011.46 1010.66 1009.92 1009.27 1008.44 1007.80 1006.94 1006.16 1005.70 1005.14 1004.24 1003.58 1003.34 1003.16 1003.16 1003.16 1003.36 1003.23 1003.24 1003.00 1002.46
1011.69 1010.81 1010.05 1009.17 1008.39 1007.54 1006.72 1005.88 1005.27 1004.67 1003.94 1003.35 1002.67 1002.37 1002.15 1002.32 1002.41 1002.49 1002.44 1002.62 1002.59 1002.44
1011.16 1010.31 1009.16 1008.36 1007.41 1006.50 1005.74 1004.94 1004.47 1003.70 1003.18 1002.50 1001.87 1001.68 1001.48 1001.45 1001.77 1001.72 1001.64 1001.80 1001.91 1001.64
1010.50 1009.40 1008.36 1007.36 1006.51 1005.51 1004.71 1004.11 1003.30 1002.54 1002.00 1001.49 1000.94 1000.76 1000.58 1000.61 1000.62 1000.69 1000.79 1000.80 1000.79 1000.63
Thickness
5556 5551 5546 5541 5535 5533 5528 5526 5521 5515 5512 5508 5503 5497 5494 5493 5494 5495 5496 5500 5503 5511
5538 5530 5525 5520 5516 5513 5510 5506 5502 5497 5492 5486 5482 5476 5473 5477 5481 5478 5482 5485 5488 5489
5518 5510 5506 5502 5498 5494 5491 5485 5481 5477 5471 5465 5463 5461 5459 5464 5468 5465 5467 5470 5474 5477
5501 5494 5488 5482 5477 5473 5470 5465 5461 5457 5453 5451 5450 5448 5446 5452 5453 5453 5454 5455 5457 5460
5483 5477 5472 5466 5459 5451 5447 5444 5439 5438 5438 5438 5437 5435 5434 5436 5439 5438 5440 5440 5439 5444
5468 5462 5456 5449 5442 5435 5427 5422 5419 5417 5419 5420 5420 5419 5419 5419 5420 5423 5424 5426 5426 5429
5454 5447 5440 5432 5423 5414 5407 5402 5401 5400 5400 5400 5401 5400 5401 5400 5398 5404 5409 5409 5412 5415
5439 5428 5420 5408 5400 5396 5391 5385 5382 5382 5381 5380 5381 5383 5383 5386 5385 5383 5390 5397 5402 5407
5422 5411 5402 5395 5389 5381 5374 5368 5364 5362 5363 5363 5364 5367 5369 5371 5374 5375 5380 5382 5384 5399
5405 5398 5391 5382 5374 5365 5358 5352 5349 5346 5346 5351 5355 5358 5361 5363 5363 5367 5371 5370 5371 5389
5393 5388 5380 5370 5359 5353 5347 5343 5342 5339 5341 5347 5351 5352 5354 5355 5357 5360 5366 5372 5380 5390
5383 5377 5368 5358 5350 5345 5342 5342 5339 5338 5340 5339 5343 5344 5347 5348 5351 5355 5361 5365 5371 5377
5376 5369 5364 5353 5348 5345 5341 5339 5334 5334 5335 5337 5340 5341 5344 5346 5347 5352 5358 5361 5366 5374
5373 5370 5366 5360 5352 5348 5345 5341 5342 5343 5342 5342 5345 5344 5345 5346 5348 5353 5357 5362 5367 5375